User: anonymous   Login
Location: Bush Observatory
(40.2653°N, 94.3194°W)
Time: 06:45:35
(UTC-05:00)
Language:

Cosmos 1933 Rocket - Orbit

View from above orbital plane
View from above orbital plane
View from above satellite
View from above satellite

Ground track
Ground track

The orbit data is extracted from the following two-line orbital elements,

1 18959U 88020B   15215.54383130  .00000192  00000-0  20584-4 0  9996
2 18959 082.5375 189.5527 0015703 228.1317 264.3620 14.83162078479240
Epoch (UTC): 03 August 2015 13:03:07
Eccentricity: 0.0015703
inclination: 82.5375°
perigee height: 608 km
apogee height: 630 km
right ascension of ascending node: 189.5527°
argument of perigee: 228.1317°
revolutions per day: 14.83162078
mean anomaly at epoch: 264.3620°
orbit number at epoch: 47924

The dashed part of the orbit path shows where the satellite is in the earth's shadow,  

DLR